Location: Newark
(50.0336°N, 22.0047°E)
Time: 06:41:54
(UTC+00:00)

N. Korean satellite - Pass Details

Date: 30 January 2020
Orbit: 456 x 505 km, 97.2° (Epoch: 27 February)

Event Time Altitude Azimuth Distance (km) Brightness Sun altitude
Rises 03:33:28 0° 25° (NNE) 2,556 10.6 -25.0°
Reaches altitude 10° 03:35:56 10° 43° (NE) 1,680 9.8 -24.6°
Maximum altitude 03:38:42 21° 93° (E) 1,164 9.3 -24.2°
Drops below altitude 10° 03:41:30 10° 143° (SE) 1,689 9.7 -23.7°
Sets 03:43:58 0° 160° (SSE) 2,574 10.5 -23.3°
